Check out our new BloomSky Weather System.

Active alerts

Houston, TX
  Details for Houston, TX Dense Fog Advisory


Thunder radar  blitzortung!


Rain radar more information rain snow radar


Visit our other weather sites:

Template documentation
and downloads

And another site



Weather Underground History page Text

Daily Summary for May 20, 2017 Units:  English    Metric   Both
« Previous Day
Next Day »
Daily Weekly Monthly Yearly Custom
  High: Low: Average:
Temperature: 90.5 °F 77.2 °F 82.6 °F
Dew Point: 77.2 °F 73.9 °F 75.4 °F
Humidity: 96 % 60 % 80 %
Wind Speed: 11.0 mph 0.0 mph 3.3 mph
Wind Gust: 16.0 mph - -
Wind:- - SSE
Pressure: 29.94 in 29.79 in -
Precipitation: 0.02 in    
Historical Graphs
 
 
Tabular Data for May 20, 2017
Time Temperature Dew Point Pressure Wind Wind Speed Wind Gust Humidity Rainfall Rate (Hourly)
00:05 80.2 °F 75.0 °F 29.82 in SSE 6.0 mph 11.0 mph 84 % 0.00 in
00:10 80.2 °F 75.0 °F 29.82 in ESE 8.0 mph 16.0 mph 84 % 0.00 in
00:15 80.2 °F 75.0 °F 29.82 in SSE 8.0 mph 16.0 mph 84 % 0.00 in
00:20 80.2 °F 75.4 °F 29.82 in East 7.0 mph 16.0 mph 85 % 0.00 in
00:25 80.2 °F 75.4 °F 29.82 in ESE 4.0 mph 13.0 mph 85 % 0.00 in
00:30 80.2 °F 75.4 °F 29.82 in SE 7.0 mph 13.0 mph 85 % 0.00 in
00:35 80.1 °F 75.2 °F 29.82 in SE 8.0 mph 15.0 mph 85 % 0.00 in
00:40 80.1 °F 75.2 °F 29.83 in SSE 5.0 mph 15.0 mph 85 % 0.00 in
00:45 80.1 °F 75.2 °F 29.83 in South 5.0 mph 15.0 mph 85 % 0.00 in
00:50 80.1 °F 75.2 °F 29.83 in SE 4.0 mph 12.0 mph 85 % 0.00 in
00:55 80.1 °F 75.2 °F 29.82 in SE 3.0 mph 12.0 mph 85 % 0.00 in
01:00 80.1 °F 75.2 °F 29.82 in SE 5.0 mph 11.0 mph 85 % 0.00 in
01:05 79.7 °F 75.2 °F 29.82 in SSE 3.0 mph 9.0 mph 86 % 0.00 in
01:10 79.3 °F 75.2 °F 29.82 in SSE 4.0 mph 11.0 mph 87 % 0.00 in
01:15 79.2 °F 75.4 °F 29.81 in ESE 5.0 mph 11.0 mph 88 % 0.00 in
01:20 79.0 °F 75.4 °F 29.81 in SSE 5.0 mph 11.0 mph 89 % 0.00 in
01:25 78.8 °F 75.2 °F 29.81 in SE 4.0 mph 11.0 mph 89 % 0.00 in
01:30 78.6 °F 75.0 °F 29.81 in SE 2.0 mph 11.0 mph 89 % 0.00 in
01:35 78.4 °F 74.8 °F 29.80 in ESE 7.0 mph 9.0 mph 89 % 0.00 in
01:40 78.4 °F 74.8 °F 29.81 in SE 4.0 mph 8.0 mph 89 % 0.00 in
01:45 78.4 °F 74.8 °F 29.80 in SE 3.0 mph 8.0 mph 89 % 0.00 in
01:50 78.4 °F 74.8 °F 29.80 in ESE 6.0 mph 8.0 mph 89 % 0.00 in
01:55 78.4 °F 74.8 °F 29.80 in ESE 4.0 mph 9.0 mph 89 % 0.00 in
02:00 78.4 °F 74.8 °F 29.80 in SE 4.0 mph 9.0 mph 89 % 0.00 in
02:05 78.3 °F 74.7 °F 29.80 in SE 2.0 mph 9.0 mph 89 % 0.00 in
02:10 78.3 °F 74.7 °F 29.79 in SE 7.0 mph 9.0 mph 89 % 0.00 in
02:15 78.3 °F 74.7 °F 29.79 in SSE 4.0 mph 8.0 mph 89 % 0.00 in
02:20 78.3 °F 74.7 °F 29.80 in SE 3.0 mph 8.0 mph 89 % 0.00 in
02:25 78.3 °F 74.7 °F 29.79 in SSE 6.0 mph 11.0 mph 89 % 0.00 in
02:30 78.3 °F 74.7 °F 29.79 in SSE 4.0 mph 11.0 mph 89 % 0.00 in
02:35 78.1 °F 74.5 °F 29.79 in ESE 5.0 mph 11.0 mph 89 % 0.00 in
02:40 78.1 °F 74.5 °F 29.80 in SE 3.0 mph 8.0 mph 89 % 0.00 in
02:45 78.1 °F 74.5 °F 29.80 in SE 2.0 mph 8.0 mph 89 % 0.00 in
02:50 78.1 °F 74.5 °F 29.80 in SE 6.0 mph 8.0 mph 89 % 0.00 in
02:55 78.1 °F 74.5 °F 29.80 in SSE 2.0 mph 8.0 mph 89 % 0.00 in
03:00 77.9 °F 74.5 °F 29.79 in ESE 3.0 mph 6.0 mph 89 % 0.00 in
03:05 77.9 °F 74.7 °F 29.80 in ESE 4.0 mph 7.0 mph 90 % 0.00 in
03:10 77.9 °F 74.7 °F 29.79 in SE 3.0 mph 7.0 mph 90 % 0.00 in
03:15 77.9 °F 74.7 °F 29.79 in ESE 6.0 mph 7.0 mph 90 % 0.00 in
03:20 77.9 °F 74.7 °F 29.79 in SE 4.0 mph 7.0 mph 90 % 0.00 in
03:25 77.9 °F 74.7 °F 29.79 in SSE 4.0 mph 10.0 mph 90 % 0.00 in
03:30 77.9 °F 74.7 °F 29.79 in SE 3.0 mph 10.0 mph 90 % 0.00 in
03:35 77.9 °F 74.7 °F 29.79 in East 3.0 mph 10.0 mph 90 % 0.00 in
03:40 77.9 °F 74.7 °F 29.79 in SSE 2.0 mph 8.0 mph 90 % 0.00 in
03:45 77.9 °F 74.7 °F 29.79 in SSE 4.0 mph 7.0 mph 90 % 0.00 in
03:50 77.9 °F 74.7 °F 29.79 in ESE 2.0 mph 7.0 mph 90 % 0.00 in
03:55 78.1 °F 74.8 °F 29.80 in SE 1.0 mph 7.0 mph 90 % 0.00 in
04:00 78.1 °F 74.8 °F 29.80 in ESE 3.0 mph 7.0 mph 90 % 0.00 in
04:05 78.1 °F 74.8 °F 29.80 in East 3.0 mph 7.0 mph 90 % 0.00 in
04:10 78.1 °F 74.8 °F 29.80 in SE 1.0 mph 7.0 mph 90 % 0.00 in
04:15 78.1 °F 74.5 °F 29.80 in SE 2.0 mph 6.0 mph 89 % 0.00 in
04:20 78.1 °F 74.5 °F 29.80 in SE 4.0 mph 8.0 mph 89 % 0.00 in
04:25 78.1 °F 74.5 °F 29.80 in SE 5.0 mph 8.0 mph 89 % 0.00 in
04:30 78.1 °F 74.5 °F 29.80 in ESE 3.0 mph 8.0 mph 89 % 0.00 in
04:35 78.1 °F 74.5 °F 29.80 in SE 5.0 mph 7.0 mph 89 % 0.00 in
04:40 78.1 °F 74.5 °F 29.81 in SE 2.0 mph 8.0 mph 89 % 0.00 in
04:45 78.1 °F 74.5 °F 29.81 in South 3.0 mph 8.0 mph 89 % 0.00 in
04:50 78.1 °F 74.5 °F 29.81 in South 2.0 mph 8.0 mph 89 % 0.00 in
04:55 78.1 °F 74.5 °F 29.81 in SE 3.0 mph 6.0 mph 89 % 0.00 in
05:00 78.1 °F 74.5 °F 29.81 in SE 2.0 mph 6.0 mph 89 % 0.00 in
05:05 78.1 °F 74.5 °F 29.81 in SSE 3.0 mph 7.0 mph 89 % 0.00 in
05:10 78.1 °F 74.5 °F 29.81 in SE 2.0 mph 7.0 mph 89 % 0.00 in
05:15 78.1 °F 74.5 °F 29.81 in ESE 3.0 mph 7.0 mph 89 % 0.00 in
05:20 77.9 °F 74.5 °F 29.81 in SE 4.0 mph 5.0 mph 89 % 0.00 in
05:25 77.7 °F 74.3 °F 29.81 in SE 7.0 mph 7.0 mph 89 % 0.00 in
05:30 77.7 °F 74.5 °F 29.81 in SSE 3.0 mph 8.0 mph 90 % 0.00 in
05:36 77.5 °F 74.3 °F 29.81 in South 3.0 mph 8.0 mph 90 % 0.00 in
05:41 77.5 °F 74.3 °F 29.81 in SE 3.0 mph 8.0 mph 90 % 0.00 in
05:46 77.4 °F 74.1 °F 29.81 in South 1.0 mph 5.0 mph 90 % 0.00 in
05:51 77.2 °F 73.9 °F 29.82 in ESE 1.0 mph 5.0 mph 90 % 0.00 in
05:56 77.2 °F 74.3 °F 29.82 in ESE 1.0 mph 5.0 mph 91 % 0.00 in
06:01 77.2 °F 74.3 °F 29.83 in SSE 2.0 mph 3.0 mph 91 % 0.00 in
06:06 77.2 °F 74.3 °F 29.83 in Calm   4.0 mph 91 % 0.00 in
06:11 77.2 °F 74.3 °F 29.84 in SSW 1.0 mph 4.0 mph 91 % 0.00 in
06:16 77.2 °F 74.3 °F 29.84 in South 1.0 mph 4.0 mph 91 % 0.00 in
06:21 77.2 °F 74.3 °F 29.84 in SSW 1.0 mph 2.0 mph 91 % 0.00 in
06:26 77.4 °F 74.5 °F 29.85 in Calm   3.0 mph 91 % 0.00 in
06:31 77.4 °F 74.5 °F 29.85 in SE 1.0 mph 3.0 mph 91 % 0.00 in
06:36 77.4 °F 74.5 °F 29.85 in SW 1.0 mph 3.0 mph 91 % 0.00 in
06:41 77.4 °F 74.5 °F 29.85 in Calm   2.0 mph 91 % 0.00 in
06:46 77.5 °F 74.7 °F 29.85 in Calm   2.0 mph 91 % 0.00 in
06:51 77.5 °F 74.7 °F 29.86 in SSW 1.0 mph 3.0 mph 91 % 0.00 in
06:56 77.5 °F 74.7 °F 29.86 in SSW 2.0 mph 3.0 mph 91 % 0.00 in
07:01 77.7 °F 74.8 °F 29.86 in SSW 1.0 mph 3.0 mph 91 % 0.00 in
07:06 77.7 °F 74.8 °F 29.86 in SE 2.0 mph 3.0 mph 91 % 0.00 in
07:11 77.9 °F 75.0 °F 29.87 in Calm   3.0 mph 91 % 0.00 in
07:16 78.1 °F 75.2 °F 29.87 in Calm   3.0 mph 91 % 0.00 in
07:21 78.1 °F 74.8 °F 29.88 in Calm   2.0 mph 90 % 0.00 in
07:26 78.3 °F 75.4 °F 29.88 in Calm   2.0 mph 91 % 0.00 in
07:31 78.4 °F 75.2 °F 29.88 in Calm   1.0 mph 90 % 0.00 in
07:36 78.4 °F 75.2 °F 29.88 in Calm   1.0 mph 90 % 0.00 in
07:41 78.8 °F 75.6 °F 29.88 in Calm   1.0 mph 90 % 0.00 in
07:46 79.0 °F 75.7 °F 29.88 in SE 1.0 mph 2.0 mph 90 % 0.00 in
07:51 79.3 °F 75.7 °F 29.88 in Calm   2.0 mph 89 % 0.00 in
07:56 79.7 °F 75.7 °F 29.88 in SE 3.0 mph 3.0 mph 88 % 0.00 in
08:01 79.9 °F 75.7 °F 29.88 in SSE 4.0 mph 4.0 mph 87 % 0.00 in
08:06 79.7 °F 75.6 °F 29.88 in SSE 2.0 mph 5.0 mph 87 % 0.00 in
08:11 79.5 °F 75.4 °F 29.87 in SSW 2.0 mph 5.0 mph 87 % 0.00 in
08:16 79.3 °F 75.2 °F 29.87 in Calm   5.0 mph 87 % 0.00 in
08:21 79.5 °F 75.6 °F 29.87 in Calm   4.0 mph 88 % 0.00 in
08:26 79.5 °F 75.4 °F 29.87 in SE 1.0 mph 4.0 mph 87 % 0.00 in
08:31 79.5 °F 75.6 °F 29.87 in ESE 3.0 mph 3.0 mph 88 % 0.00 in
08:36 79.9 °F 75.9 °F 29.87 in Calm   4.0 mph 88 % 0.00 in
08:41 80.6 °F 76.6 °F 29.88 in ESE 2.0 mph 4.0 mph 88 % 0.00 in
08:47 81.1 °F 76.3 °F 29.87 in East 2.0 mph 4.0 mph 85 % 0.00 in
08:52 81.3 °F 76.5 °F 29.87 in East 4.0 mph 5.0 mph 85 % 0.00 in
08:57 81.7 °F 76.3 °F 29.87 in Calm   5.0 mph 84 % 0.00 in
09:02 82.0 °F 76.6 °F 29.87 in SE 2.0 mph 6.0 mph 84 % 0.00 in
09:07 82.6 °F 76.1 °F 29.87 in SE 3.0 mph 6.0 mph 81 % 0.00 in
09:12 82.9 °F 75.7 °F 29.87 in SSW 4.0 mph 7.0 mph 79 % 0.00 in
09:17 83.1 °F 76.3 °F 29.88 in SE 5.0 mph 9.0 mph 80 % 0.00 in
09:22 83.5 °F 76.6 °F 29.88 in SE 6.0 mph 9.0 mph 80 % 0.00 in
09:27 84.0 °F 77.2 °F 29.88 in SE 4.0 mph 9.0 mph 80 % 0.00 in
09:32 84.6 °F 77.0 °F 29.88 in SE 6.0 mph 7.0 mph 78 % 0.00 in
09:37 84.4 °F 76.8 °F 29.88 in SSE 2.0 mph 7.0 mph 78 % 0.00 in
09:42 84.4 °F 77.2 °F 29.88 in NE 1.0 mph 7.0 mph 79 % 0.00 in
09:47 84.7 °F 77.2 °F 29.88 in SE 5.0 mph 7.0 mph 78 % 0.00 in
09:52 84.7 °F 76.6 °F 29.88 in SE 6.0 mph 7.0 mph 77 % 0.00 in
09:57 84.7 °F 77.2 °F 29.88 in East 2.0 mph 8.0 mph 78 % 0.00 in
10:02 84.9 °F 76.8 °F 29.89 in South 4.0 mph 8.0 mph 77 % 0.00 in
10:07 85.3 °F 76.5 °F 29.89 in ESE 3.0 mph 8.0 mph 75 % 0.00 in
10:12 85.3 °F 76.5 °F 29.89 in SSE 8.0 mph 8.0 mph 75 % 0.00 in
10:17 85.6 °F 76.5 °F 29.88 in South 3.0 mph 8.0 mph 74 % 0.00 in
10:22 86.2 °F 76.5 °F 29.89 in ESE 7.0 mph 8.0 mph 73 % 0.00 in
10:27 86.2 °F 77.0 °F 29.89 in SE 3.0 mph 9.0 mph 74 % 0.00 in
10:32 86.2 °F 76.1 °F 29.89 in SSW 3.0 mph 10.0 mph 72 % 0.00 in
10:37 86.4 °F 76.3 °F 29.89 in SE 5.0 mph 10.0 mph 72 % 0.00 in
10:42 86.9 °F 76.8 °F 29.90 in Calm   10.0 mph 72 % 0.00 in
10:47 87.3 °F 75.9 °F 29.90 in ESE 4.0 mph 9.0 mph 69 % 0.00 in
10:52 86.7 °F 75.7 °F 29.90 in SE 4.0 mph 9.0 mph 70 % 0.00 in
10:57 87.1 °F 76.1 °F 29.90 in ESE 6.0 mph 9.0 mph 70 % 0.00 in
11:02 87.6 °F 75.4 °F 29.90 in ESE 3.0 mph 11.0 mph 67 % 0.00 in
11:04 88.0 °F 75.6 °F 29.90 in SSE 8.0 mph 11.0 mph 67 % 0.00 in
11:09 88.3 °F 75.6 °F 29.89 in Calm   11.0 mph 66 % 0.00 in
11:14 88.7 °F 75.4 °F 29.90 in SE 4.0 mph 11.0 mph 65 % 0.00 in
11:19 89.1 °F 75.2 °F 29.89 in SSE 10.0 mph 10.0 mph 64 % 0.00 in
11:24 89.1 °F 74.8 °F 29.89 in South 5.0 mph 11.0 mph 63 % 0.00 in
11:29 89.6 °F 75.7 °F 29.89 in ESE 6.0 mph 11.0 mph 64 % 0.00 in
11:34 89.2 °F 74.5 °F 29.89 in SSW 4.0 mph 13.0 mph 62 % 0.00 in
11:39 89.1 °F 74.3 °F 29.90 in SSE 5.0 mph 13.0 mph 62 % 0.00 in
13:19 89.6 °F 74.3 °F 29.88 in SE 6.0 mph 9.0 mph 61 % 0.00 in
13:24 89.6 °F 74.3 °F 29.88 in SE 5.0 mph 9.0 mph 61 % 0.00 in
13:29 90.0 °F 75.2 °F 29.87 in SSE 6.0 mph 9.0 mph 62 % 0.00 in
13:34 89.8 °F 75.0 °F 29.87 in SSW 3.0 mph 9.0 mph 62 % 0.00 in
13:39 89.4 °F 75.2 °F 29.87 in SSW 4.0 mph 11.0 mph 63 % 0.00 in
13:44 89.2 °F 75.0 °F 29.87 in South 4.0 mph 11.0 mph 63 % 0.00 in
13:49 89.4 °F 75.2 °F 29.86 in SSW 3.0 mph 11.0 mph 63 % 0.00 in
13:54 89.8 °F 75.6 °F 29.86 in SSE 6.0 mph 11.0 mph 63 % 0.00 in
13:59 89.4 °F 76.1 °F 29.86 in SE 4.0 mph 8.0 mph 65 % 0.00 in
14:04 89.1 °F 75.7 °F 29.85 in SSE 5.0 mph 10.0 mph 65 % 0.00 in
14:09 89.4 °F 75.6 °F 29.85 in SE 4.0 mph 10.0 mph 64 % 0.00 in
14:14 89.8 °F 75.9 °F 29.85 in SE 6.0 mph 10.0 mph 64 % 0.00 in
14:19 89.8 °F 75.9 °F 29.84 in South 2.0 mph 8.0 mph 64 % 0.00 in
14:25 90.5 °F 75.7 °F 29.83 in ESE 7.0 mph 8.0 mph 62 % 0.00 in
14:30 90.3 °F 75.0 °F 29.81 in SSE 7.0 mph 12.0 mph 61 % 0.00 in
14:35 90.0 °F 75.7 °F 29.81 in SSE 6.0 mph 12.0 mph 63 % 0.00 in
14:40 90.0 °F 75.7 °F 29.83 in SSE 7.0 mph 12.0 mph 63 % 0.00 in
14:45 90.3 °F 75.9 °F 29.83 in South 6.0 mph 12.0 mph 63 % 0.00 in
14:50 90.0 °F 75.2 °F 29.83 in SSE 4.0 mph 12.0 mph 62 % 0.00 in
14:55 90.3 °F 75.9 °F 29.83 in SE 7.0 mph 12.0 mph 63 % 0.00 in
15:00 90.3 °F 75.0 °F 29.83 in SE 5.0 mph 12.0 mph 61 % 0.00 in
15:05 90.1 °F 74.3 °F 29.82 in SSE 7.0 mph 12.0 mph 60 % 0.00 in
15:10 90.1 °F 74.8 °F 29.83 in East 4.0 mph 11.0 mph 61 % 0.00 in
15:15 90.3 °F 75.0 °F 29.83 in SE 6.0 mph 11.0 mph 61 % 0.00 in
15:20 90.3 °F 75.0 °F 29.82 in SE 4.0 mph 11.0 mph 61 % 0.00 in
15:25 90.1 °F 75.9 °F 29.82 in East 9.0 mph 9.0 mph 63 % 0.00 in
15:30 90.0 °F 75.7 °F 29.82 in ESE 2.0 mph 10.0 mph 63 % 0.00 in
15:35 90.0 °F 76.1 °F 29.82 in ESE 11.0 mph 11.0 mph 64 % 0.00 in
15:40 89.8 °F 75.9 °F 29.81 in SSE 8.0 mph 11.0 mph 64 % 0.00 in
15:45 90.0 °F 75.2 °F 29.81 in South 8.0 mph 12.0 mph 62 % 0.00 in
15:50 90.0 °F 75.2 °F 29.82 in SSW 5.0 mph 12.0 mph 62 % 0.00 in
15:55 90.0 °F 75.7 °F 29.82 in SSE 8.0 mph 12.0 mph 63 % 0.00 in
16:00 89.8 °F 75.9 °F 29.82 in SSE 10.0 mph 11.0 mph 64 % 0.00 in
16:05 89.6 °F 75.7 °F 29.82 in South 4.0 mph 12.0 mph 64 % 0.00 in
16:10 89.2 °F 75.9 °F 29.82 in South 4.0 mph 12.0 mph 65 % 0.00 in
16:15 89.1 °F 76.3 °F 29.82 in SE 4.0 mph 13.0 mph 66 % 0.00 in
16:20 89.1 °F 76.3 °F 29.83 in SE 8.0 mph 13.0 mph 66 % 0.00 in
16:25 88.9 °F 76.5 °F 29.83 in East 5.0 mph 13.0 mph 67 % 0.00 in
16:30 88.3 °F 75.9 °F 29.83 in SSE 3.0 mph 10.0 mph 67 % 0.00 in
16:35 88.2 °F 76.3 °F 29.82 in SE 3.0 mph 10.0 mph 68 % 0.00 in
16:40 88.2 °F 76.3 °F 29.83 in ESE 5.0 mph 11.0 mph 68 % 0.00 in
16:45 88.2 °F 76.6 °F 29.83 in ESE 5.0 mph 11.0 mph 69 % 0.00 in
16:50 88.2 °F 76.6 °F 29.83 in SE 7.0 mph 11.0 mph 69 % 0.00 in
16:55 88.2 °F 76.3 °F 29.82 in ESE 7.0 mph 10.0 mph 68 % 0.00 in
17:00 88.2 °F 76.3 °F 29.82 in SE 7.0 mph 10.0 mph 68 % 0.00 in
17:05 88.0 °F 76.1 °F 29.81 in ESE 4.0 mph 12.0 mph 68 % 0.00 in
17:10 88.0 °F 75.6 °F 29.81 in SE 9.0 mph 13.0 mph 67 % 0.00 in
17:15 88.0 °F 75.6 °F 29.81 in SE 5.0 mph 13.0 mph 67 % 0.00 in
17:20 88.0 °F 75.6 °F 29.82 in SSE 5.0 mph 13.0 mph 67 % 0.00 in
17:25 87.8 °F 75.4 °F 29.82 in SSE 8.0 mph 12.0 mph 67 % 0.00 in
17:30 87.6 °F 75.7 °F 29.82 in South 4.0 mph 12.0 mph 68 % 0.00 in
17:40 87.4 °F 75.6 °F 29.83 in SE 6.0 mph 12.0 mph 68 % 0.00 in
17:45 87.4 °F 75.6 °F 29.83 in SSW 5.0 mph 11.0 mph 68 % 0.00 in
17:50 87.3 °F 75.4 °F 29.84 in SSW 4.0 mph 12.0 mph 68 % 0.00 in
17:55 87.3 °F 75.9 °F 29.84 in SSE 6.0 mph 12.0 mph 69 % 0.00 in
18:00 87.1 °F 75.7 °F 29.84 in SE 6.0 mph 12.0 mph 69 % 0.00 in
18:05 86.9 °F 75.6 °F 29.83 in SSW 4.0 mph 11.0 mph 69 % 0.00 in
18:10 86.7 °F 75.7 °F 29.83 in SSW 5.0 mph 9.0 mph 70 % 0.00 in
18:15 86.5 °F 75.6 °F 29.83 in SSW 4.0 mph 11.0 mph 70 % 0.00 in
18:20 86.5 °F 75.6 °F 29.82 in SE 6.0 mph 11.0 mph 70 % 0.00 in
18:25 86.5 °F 75.6 °F 29.82 in SE 5.0 mph 11.0 mph 70 % 0.00 in
18:30 86.5 °F 75.6 °F 29.82 in SSE 5.0 mph 11.0 mph 70 % 0.00 in
18:35 86.4 °F 75.4 °F 29.82 in SSE 7.0 mph 11.0 mph 70 % 0.00 in
18:40 86.4 °F 75.4 °F 29.83 in SSE 3.0 mph 11.0 mph 70 % 0.00 in
18:45 86.4 °F 75.4 °F 29.83 in SSW 3.0 mph 11.0 mph 70 % 0.00 in
18:50 86.4 °F 75.4 °F 29.84 in SE 4.0 mph 9.0 mph 70 % 0.00 in
18:55 86.2 °F 75.7 °F 29.85 in SSE 3.0 mph 9.0 mph 71 % 0.00 in
19:00 86.2 °F 75.2 °F 29.85 in SE 4.0 mph 9.0 mph 70 % 0.00 in
19:05 86.0 °F 75.0 °F 29.84 in SSE 8.0 mph 8.0 mph 70 % 0.00 in
19:10 85.8 °F 75.4 °F 29.83 in ESE 4.0 mph 8.0 mph 71 % 0.00 in
19:15 85.8 °F 75.4 °F 29.84 in ESE 4.0 mph 8.0 mph 71 % 0.00 in
19:20 85.6 °F 75.2 °F 29.85 in SSW 6.0 mph 10.0 mph 71 % 0.00 in
19:25 85.5 °F 75.0 °F 29.85 in SE 4.0 mph 10.0 mph 71 % 0.00 in
19:30 85.5 °F 75.0 °F 29.85 in South 4.0 mph 10.0 mph 71 % 0.00 in
19:35 85.5 °F 75.0 °F 29.85 in South 3.0 mph 7.0 mph 71 % 0.00 in
19:40 85.3 °F 74.8 °F 29.85 in SW 2.0 mph 6.0 mph 71 % 0.00 in
19:45 85.3 °F 74.8 °F 29.86 in ESE 3.0 mph 5.0 mph 71 % 0.00 in
19:50 85.3 °F 74.3 °F 29.86 in SE 1.0 mph 5.0 mph 70 % 0.00 in
19:55 85.3 °F 74.3 °F 29.86 in SSE 2.0 mph 5.0 mph 70 % 0.00 in
20:00 85.1 °F 74.7 °F 29.86 in SE 2.0 mph 5.0 mph 71 % 0.00 in
20:05 84.9 °F 74.5 °F 29.87 in ESE 3.0 mph 5.0 mph 71 % 0.00 in
20:10 84.9 °F 74.5 °F 29.88 in Calm   5.0 mph 71 % 0.00 in
20:15 84.7 °F 74.3 °F 29.88 in NE 2.0 mph 5.0 mph 71 % 0.00 in
20:20 84.7 °F 74.7 °F 29.88 in Calm   4.0 mph 72 % 0.00 in
20:25 84.6 °F 74.5 °F 29.88 in Calm   2.0 mph 72 % 0.00 in
20:30 84.6 °F 75.0 °F 29.89 in North 2.0 mph 3.0 mph 73 % 0.00 in
20:35 84.4 °F 75.9 °F 29.89 in Calm   4.0 mph 76 % 0.00 in
20:41 83.7 °F 75.7 °F 29.89 in Calm   6.0 mph 77 % 0.00 in
20:46 82.8 °F 75.6 °F 29.88 in NW 3.0 mph 8.0 mph 79 % 0.00 in
20:51 81.7 °F 75.6 °F 29.89 in NNW 2.0 mph 8.0 mph 82 % 0.00 in
20:56 81.1 °F 75.9 °F 29.89 in NNW 2.0 mph 8.0 mph 84 % 0.00 in
21:01 80.8 °F 75.9 °F 29.90 in Calm   8.0 mph 85 % 0.00 in
21:06 80.4 °F 75.9 °F 29.90 in Calm   6.0 mph 86 % 0.00 in
21:11 80.2 °F 75.7 °F 29.91 in NW 2.0 mph 5.0 mph 86 % 0.00 in
21:16 80.1 °F 75.9 °F 29.91 in NNW 1.0 mph 6.0 mph 87 % 0.00 in
21:21 79.9 °F 75.9 °F 29.91 in WNW 2.0 mph 6.0 mph 88 % 0.00 in
21:26 79.5 °F 75.6 °F 29.91 in Calm   6.0 mph 88 % 0.00 in
21:31 79.5 °F 75.9 °F 29.92 in Calm   5.0 mph 89 % 0.00 in
21:36 79.5 °F 75.9 °F 29.92 in Calm   5.0 mph 89 % 0.00 in
21:41 79.5 °F 75.9 °F 29.92 in Calm   5.0 mph 89 % 0.00 in
21:46 79.5 °F 76.3 °F 29.91 in Calm   3.0 mph 90 % 0.01 in
21:51 79.5 °F 76.3 °F 29.91 in SW 1.0 mph 1.0 mph 90 % 0.01 in
21:56 79.3 °F 76.5 °F 29.91 in Calm   2.0 mph 91 % 0.01 in
22:01 79.2 °F 76.3 °F 29.91 in SSW 1.0 mph 2.0 mph 91 % 0.02 in
22:06 78.8 °F 75.9 °F 29.91 in SSW 1.0 mph 3.0 mph 91 % 0.02 in
22:11 78.6 °F 76.1 °F 29.91 in SSW 2.0 mph 3.0 mph 92 % 0.02 in
22:16 78.4 °F 75.9 °F 29.90 in ESE 1.0 mph 3.0 mph 92 % 0.02 in
22:21 78.4 °F 76.3 °F 29.91 in Calm   3.0 mph 93 % 0.02 in
22:26 78.4 °F 76.3 °F 29.91 in NE 1.0 mph 3.0 mph 93 % 0.02 in
22:31 78.3 °F 76.1 °F 29.91 in NW 1.0 mph 2.0 mph 93 % 0.02 in
22:36 78.3 °F 76.5 °F 29.92 in North 1.0 mph 2.0 mph 94 % 0.02 in
22:41 78.3 °F 76.5 °F 29.92 in Calm   2.0 mph 94 % 0.02 in
22:46 78.3 °F 76.6 °F 29.92 in NNW 1.0 mph 3.0 mph 95 % 0.01 in
22:51 78.3 °F 76.6 °F 29.91 in Calm   3.0 mph 95 % 0.01 in
22:56 78.1 °F 76.5 °F 29.92 in Calm   3.0 mph 95 % 0.01 in
23:01 77.9 °F 76.3 °F 29.92 in Calm   3.0 mph 95 % 0.00 in
23:06 77.9 °F 76.3 °F 29.92 in Calm   2.0 mph 95 % 0.00 in
23:11 77.9 °F 76.3 °F 29.92 in Calm   2.0 mph 95 % 0.00 in
23:16 78.1 °F 76.8 °F 29.92 in Calm   1.0 mph 96 % 0.00 in
23:21 77.9 °F 76.3 °F 29.93 in Calm   1.0 mph 95 % 0.00 in
23:26 78.1 °F 76.8 °F 29.93 in Calm   1.0 mph 96 % 0.00 in
23:31 78.1 °F 76.8 °F 29.93 in Calm   1.0 mph 96 % 0.00 in
23:32 78.1 °F 76.8 °F 29.93 in Calm   1.0 mph 96 % 0.00 in
23:37 78.1 °F 76.8 °F 29.93 in Calm   1.0 mph 96 % 0.00 in
23:42 78.1 °F 76.8 °F 29.93 in Calm   1.0 mph 96 % 0.00 in
23:47 78.1 °F 76.8 °F 29.94 in Calm   1.0 mph 96 % 0.00 in
23:52 77.9 °F 76.6 °F 29.93 in Calm   1.0 mph 96 % 0.00 in
23:57 77.9 °F 76.6 °F 29.93 in Calm   1.0 mph 96 % 0.00 in
Spring, Texas: Villages of Bridgestone
Compliments of Weather Underground - 2.75 mb

Script developed by  Jim McMurry - jmcmurry@mwt.net Adapted for the template by  Wim van der Kuil - Leuven-Template.eu

You find our weather info also at:

UK Metoffice

WeatherCloud

Weather Underground

Mid-South Weather Network

AWEKAS

Citizen Weather Observer Program (CWOP)

HAMweather, WeatherForYou, PWS Weather

Equipment we use:

Weather-station
Davis Vantage Vue

Weather-program
Meteohub

Weather-server
Debian 7.9 x86 (Guest)

Provider
DreamHost

Davis Vantage Vue

Meteohub

Debian 7.9 x86 (Guest)

DreamHost